Location: Hurstbourne Priors
(51.2000°N, 1.3667°W)
Time: 07:32:58
(UTC+00:00)

Cosmos 2237 Rocket - Visible Passes

Search period start: 11 August 2020 00:00
Search period end: 21 August 2020 00:00
Orbit: 834 x 850 km, 71.0° (Epoch: 10 August)

Date Brightness Start Highest point End Pass type
(mag) Time Alt. Az. Time Alt. Az. Time Alt. Az.
11 Aug 3.1 01:35:47 10° NW 01:40:36 30° WSW 01:40:54 30° WSW visible
11 Aug 4.5 21:52:54 10° N 21:56:34 17° NNE 22:00:15 10° ENE visible
11 Aug 2.7 23:36:24 10° NNW 23:41:58 55° NE 23:44:07 35° ESE visible
12 Aug 3.1 01:20:53 10° NW 01:25:47 31° WSW 01:25:54 31° WSW visible
12 Aug 4.4 21:38:04 10° N 21:41:40 17° NNE 21:45:15 10° ENE visible
12 Aug 2.7 23:21:33 10° NNW 23:27:06 53° NE 23:29:10 35° ESE visible
13 Aug 3.0 01:05:59 10° NW 01:10:57 32° WSW 01:10:58 32° WSW visible
13 Aug 4.4 21:23:14 10° N 21:26:45 16° NNE 21:30:16 10° ENE visible
13 Aug 2.8 23:06:41 10° NNW 23:12:14 51° NE 23:14:16 35° ESE visible
14 Aug 3.0 00:51:06 10° NW 00:56:04 34° WSW 00:56:04 34° WSW visible
14 Aug 4.4 21:08:23 10° N 21:11:51 16° NNE 21:15:16 10° ENE visible
14 Aug 2.8 22:51:50 10° NNW 22:57:21 49° NE 22:59:24 34° ESE visible
15 Aug 3.0 00:36:12 10° NW 00:41:12 35° WSW 00:41:12 35° WSW visible
15 Aug 4.4 20:53:33 10° N 20:56:56 16° NNE 21:00:17 10° ENE visible
15 Aug 2.8 22:36:59 10° NNW 22:42:28 47° NE 22:44:34 33° ESE visible
16 Aug 2.9 00:21:18 10° NW 00:26:22 37° WSW 00:26:22 37° WSW visible
16 Aug 4.4 20:38:43 10° N 20:42:00 15° NNE 20:45:17 10° ENE visible
16 Aug 2.9 22:22:08 10° NNW 22:27:36 46° NE 22:29:47 31° ESE visible
17 Aug 2.9 00:06:25 10° NW 00:11:34 38° WSW 00:11:34 38° WSW visible
17 Aug 4.4 20:23:53 10° N 20:27:05 15° NNE 20:30:17 10° ENE visible
17 Aug 2.9 22:07:18 10° NNW 22:12:43 44° NE 22:15:01 30° ESE visible
17 Aug 2.8 23:51:31 10° NW 23:56:46 40° WSW 23:56:49 40° WSW visible
18 Aug 4.4 20:09:02 10° N 20:12:10 15° NNE 20:15:17 10° ENE visible
18 Aug 2.9 21:52:26 10° NNW 21:57:50 43° NE 22:00:17 28° ESE visible
18 Aug 2.8 23:36:38 10° NW 23:41:55 42° WSW 23:42:05 41° WSW visible
19 Aug 4.4 19:54:12 10° N 19:57:15 14° NNE 20:00:17 10° ENE visible
19 Aug 3.0 21:37:35 10° NNW 21:42:57 41° NE 21:45:35 26° ESE visible
19 Aug 2.7 23:21:45 10° NW 23:27:04 43° WSW 23:27:23 43° WSW visible
20 Aug 3.0 21:22:44 10° NNW 21:28:04 40° NE 21:30:54 24° ESE visible
20 Aug 2.7 23:06:52 10° NW 23:12:14 45° WSW 23:12:43 44° SW visible
